K1FFK-1 Weather Reports


Display with metric or nautical units.
time (UTC)temp
F
wind
direction
speed
MPH
gust
MPH
rain 1hr
in
rain 24hr
in
rain mn
in
humidity
%
barometer
mb
20260506191134 50 205 5.0 5.0 0.00 0.00 0.00 100 1009.5
20260506190134 50 206 5.0 5.0 0.00 0.00 0.00 100 1009.5
20260506185135 50 205 4.0 4.0 0.00 0.00 0.00 100 1009.7
20260506184134 50 194 8.0 8.0 0.00 0.00 0.00 100 1009.7
20260506183134 50 208 5.0 5.0 0.00 0.00 0.00 100 1009.8
20260506182134 50 202 4.0 4.0 0.00 0.00 0.00 100 1009.9
20260506181134 50 194 4.0 4.0 0.00 0.00 0.00 100 1010.1
20260506180133 50 202 6.0 6.0 0.00 0.00 0.00 100 1010.0
20260506175134 50 199 5.0 5.0 0.00 0.00 0.00 100 1010.1
20260506174134 50 201 5.0 5.0 0.00 0.00 0.00 100 1010.3
20260506173134 50 187 6.0 6.0 0.00 0.00 0.00 100 1010.2
20260506172133 50 188 5.0 5.0 0.00 0.00 0.00 100 1010.5
20260506171134 50 208 5.0 5.0 0.00 0.00 0.00 100 1010.8
20260506170138 50 203 6.0 6.0 0.00 0.00 0.00 100 1010.9
20260506170134 50 203 6.0 6.0 0.00 0.00 0.00 100 1010.9
20260506165133 50 180 5.0 5.0 0.00 0.00 0.00 100 1011.2
20260506164133 50 184 4.0 4.0 0.00 0.00 0.00 100 1011.3
20260506163134 50 194 5.0 5.0 0.00 0.00 0.00 100 1011.2
20260506162134 50 191 5.0 5.0 0.00 0.00 0.00 100 1011.4
20260506161133 50 191 4.0 4.0 0.00 0.00 0.00 100 1011.5
20260506160134 50 202 5.0 5.0 0.00 0.00 0.00 100 1011.5
20260506155134 50 195 5.0 5.0 0.00 0.00 0.00 100 1011.5
20260506154134 50 222 3.0 3.0 0.00 0.00 0.00 100 1011.6
20260506153134 50 227 3.0 3.0 0.00 0.00 0.00 100 1011.7
20260506152133 50 194 3.0 3.0 0.00 0.00 0.00 100 1011.9
20260506151133 51 208 3.0 3.0 0.00 0.00 0.00 100 1012.2
20260506150134 51 196 3.0 3.0 0.00 0.00 0.00 100 1012.5
20260506145133 51 184 3.0 3.0 0.00 0.00 0.00 100 1012.4
20260506144134 51 202 4.0 4.0 0.00 0.00 0.00 100 1012.4
20260506143133 51 220 5.0 5.0 0.00 0.00 0.00 100 1012.4
20260506142133 51 201 4.0 4.0 0.00 0.00 0.00 100 1012.4
20260506141133 51 185 4.0 4.0 0.00 0.00 0.00 100 1012.2
20260506140134 51 196 3.0 3.0 0.00 0.00 0.00 100 1012.3
20260506135133 51 210 5.0 5.0 0.00 0.00 0.00 100 1012.3
20260506134134 51 201 4.0 4.0 0.00 0.00 0.00 100 1012.0
20260506133133 51 194 5.0 5.0 0.00 0.00 0.00 100 1012.0
20260506132133 50 202 3.0 3.0 0.00 0.00 0.00 100 1012.0
20260506131134 50 202 4.0 4.0 0.00 0.00 0.00 100 1012.0
20260506130133 50 205 4.0 4.0 0.00 0.00 0.00 100 1012.2
20260506125133 50 205 4.0 4.0 0.00 0.00 0.00 100 1012.4
20260506124134 50 191 3.0 3.0 0.00 0.00 0.00 100 1012.5
20260506123133 50 192 5.0 5.0 0.00 0.00 0.00 100 1012.6
20260506122133 50 199 5.0 5.0 0.00 0.00 0.00 100 1012.6
20260506121133 50 172 5.0 5.0 0.00 0.00 0.00 100 1012.6
20260506120134 49 187 5.0 5.0 0.00 0.00 0.00 100 1012.4
20260506115134 49 180 6.0 6.0 0.00 0.00 0.00 100 1012.4
20260506114133 49 184 6.0 6.0 0.00 0.00 0.00 99 1012.3
20260506113134 49 191 6.0 6.0 0.00 0.00 0.00 99 1012.2
20260506112134 49 181 6.0 6.0 0.00 0.00 0.00 99 1012.4
20260506111134 49 194 5.0 5.0 0.00 0.00 0.00 98 1012.5
20260506110133 49 194 6.0 6.0 0.00 0.00 0.00 98 1012.5
20260506105133 49 177 5.0 5.0 0.00 0.00 0.00 97 1012.4
20260506104134 50 194 5.0 5.0 0.00 0.00 0.00 96 1012.4
20260506103134 50 196 5.0 5.0 0.00 0.00 0.00 95 1012.4
20260506102133 50 192 5.0 5.0 0.00 0.00 0.00 94 1012.4
20260506101134 50 191 6.0 6.0 0.00 0.00 0.00 94 1012.3
20260506100134 50 194 4.0 4.0 0.00 0.00 0.00 93 1012.3
20260506095133 50 187 6.0 6.0 0.00 0.00 0.00 92 1012.4
20260506094134 51 196 5.0 5.0 0.00 0.00 0.00 91 1012.3
20260506093134 51 191 5.0 5.0 0.00 0.00 0.00 91 1012.2
20260506092133 51 196 5.0 5.0 0.00 0.00 0.00 90 1012.3
20260506091134 51 187 6.0 6.0 0.00 0.00 0.00 90 1012.6
20260506090134 51 196 6.0 6.0 0.00 0.00 0.00 90 1012.6
20260506085133 51 202 4.0 4.0 0.00 0.00 0.00 89 1012.5
20260506084134 51 198 5.0 5.0 0.00 0.00 0.00 88 1012.6
20260506083135 51 196 7.0 7.0 0.00 0.00 0.00 88 1012.6
20260506082134 51 191 6.0 6.0 0.00 0.00 0.00 88 1012.7
20260506081133 51 194 6.0 6.0 0.00 0.00 0.00 88 1012.8
20260506080135 52 188 5.0 5.0 0.00 0.00 0.00 87 1012.9
20260506073133 51 188 5.0 5.0 0.00 0.00 0.00 87 1013.2
20260506072133 51 191 4.0 4.0 0.00 0.00 0.00 87 1013.3
20260506071133 52 201 4.0 4.0 0.00 0.00 0.00 87 1013.1
20260506070133 52 194 5.0 5.0 0.00 0.00 0.00 85 1013.4
20260506062134 53 201 3.0 3.0 0.00 0.00 0.00 83 1013.4
20260506061134 53 203 3.0 3.0 0.00 0.00 0.00 82 1013.6
20260506060134 53 208 3.0 3.0 0.00 0.00 0.00 81 1013.7
20260506051133 53 300 3.0 3.0 0.00 0.00 0.00 79 1014.2
20260506050133 54 187 1.0 1.0 0.00 0.00 0.00 78 1014.3
20260506045134 54 215 1.0 1.0 0.00 0.00 0.00 77 1014.3
20260506044136 54 201 2.0 2.0 0.00 0.00 0.00 77 1014.2
20260506043134 55 220 2.0 2.0 0.00 0.00 0.00 76 1014.3
20260506042134 56 187 2.0 2.0 0.00 0.00 0.00 73 1014.4
20260506041135 56 203 2.0 2.0 0.00 0.00 0.00 70 1014.2
20260506040133 57 198 4.0 4.0 0.00 0.00 0.00 68 1014.2
20260506035134 57 195 6.0 6.0 0.00 0.00 0.00 68 1014.0
20260506034135 57 201 4.0 4.0 0.00 0.00 0.00 68 1014.0
20260506033133 57 194 5.0 5.0 0.00 0.00 0.00 69 1014.3
20260506032134 56 187 5.0 5.0 0.00 0.00 0.00 72 1014.3
20260506031133 56 191 4.0 4.0 0.00 0.00 0.00 72 1014.6
20260506030133 56 199 3.0 3.0 0.00 0.00 0.00 75 1014.5
20260506025133 56 191 5.0 5.0 0.00 0.00 0.00 76 1014.6
20260506024134 56 194 4.0 4.0 0.00 0.00 0.00 76 1014.7
20260506023134 56 196 3.0 3.0 0.00 0.00 0.00 75 1014.8
20260506022134 56 191 3.0 3.0 0.00 0.00 0.00 73 1014.9
20260506021134 57 184 4.0 4.0 0.00 0.00 0.00 73 1014.8
20260506020133 57 198 4.0 4.0 0.00 0.00 0.00 72 1014.8
20260506015134 56 194 5.0 5.0 0.00 0.00 0.00 75 1014.6
20260506014133 55 192 4.0 4.0 0.00 0.00 0.00 77 1014.6
20260506013134 56 191 4.0 4.0 0.00 0.00 0.00 82 1014.5
20260506012134 57 196 4.0 4.0 0.00 0.00 0.00 72 1014.4
20260506011133 56 199 5.0 5.0 0.00 0.00 0.00 73 1014.2
20260506010135 55 192 4.0 4.0 0.00 0.00 0.00 77 1014.2
20260506005133 56 195 4.0 4.0 0.00 0.00 0.00 79 1014.2
20260506004134 56 196 3.0 3.0 0.00 0.00 0.00 73 1014.1
20260506003134 56 208 3.0 3.0 0.00 0.00 0.00 73 1013.9
20260506002135 55 196 3.0 3.0 0.00 0.00 0.00 75 1013.7
20260506001133 55 203 3.0 3.0 0.00 0.00 0.00 78 1013.6
20260506000134 54 258 1.0 1.0 0.00 0.00 0.00 80 1013.7
20260505235134 54 286 3.0 3.0 0.00 0.00 0.00 83 1013.7
20260505234133 54 310 5.0 5.0 0.00 0.00 0.00 80 1013.5
20260505233134 54 313 10.0 10.0 0.00 0.00 0.00 84 1013.4
20260505232134 53 315 9.0 9.0 0.00 0.00 0.00 87 1013.2
20260505231134 52 322 8.0 8.0 0.00 0.00 0.00 93 1013.3
20260505230134 52 316 9.0 9.0 0.00 0.00 0.00 94 1013.5
20260505225134 53 319 10.0 10.0 0.00 0.00 0.00 95 1013.4
20260505224134 56 323 7.0 7.0 0.00 0.00 0.00 92 1013.2
20260505223133 62 322 3.0 3.0 0.00 0.00 0.00 56 1013.3
20260505222134 62 213 3.0 3.0 0.00 0.00 0.00 51 1012.7
20260505221133 63 208 4.0 4.0 0.00 0.00 0.00 52 1012.8
20260505220135 63 198 3.0 3.0 0.00 0.00 0.00 47 1012.6
20260505215133 63 205 4.0 4.0 0.00 0.00 0.00 47 1012.3
20260505214134 64 192 5.0 5.0 0.00 0.00 0.00 49 1012.6
20260505213134 64 215 4.0 4.0 0.00 0.00 0.00 48 1012.6
20260505212133 65 210 3.0 3.0 0.00 0.00 0.00 47 1012.5
20260505211133 66 196 6.0 6.0 0.00 0.00 0.00 46 1011.8
20260505210133 67 202 5.0 5.0 0.00 0.00 0.00 45 1011.9
20260505205133 66 212 4.0 4.0 0.00 0.00 0.00 47 1012.1
20260505204134 66 209 6.0 6.0 0.00 0.00 0.00 47 1012.3
20260505203134 67 201 5.0 5.0 0.00 0.00 0.00 48 1012.5
20260505202134 66 216 6.0 6.0 0.00 0.00 0.00 48 1012.4
20260505201133 67 192 7.0 7.0 0.00 0.00 0.00 48 1012.2
20260505200133 68 201 7.0 7.0 0.00 0.00 0.00 47 1012.2
20260505195134 67 246 4.0 4.0 0.00 0.00 0.00 47 1012.5
20260505194135 67 243 5.0 5.0 0.00 0.00 0.00 46 1012.5
20260505193133 66 203 3.0 3.0 0.00 0.00 0.00 47 1012.6
20260505192133 65 205 6.0 6.0 0.00 0.00 0.00 51 1012.5